Вернуться в каталог

PICOSAT 6

АктивенНаукаLEO
NORAD 26094·PAYLOAD·🇺🇸 United States

Запущен Jan 27, 2000 с Vandenberg Space Force Base

Loading…

Ближайшие Пролёты (ближайшие 24 часа)

TLE

СвежийSource: Space-Track

Эпоха: Sep 14, 2026, 07:31 UTC

1 26094U 00004M   26257.31371248  .00000374  00000-0  11828-3 0  9993
2 26094 100.2130 292.6799 0030942 289.7812  70.0039 14.47387508398128

Отслеживайте PICOSAT 6 в реальном времени с AllMySat

Download on the App Store